Location: Melbourne
(37.8666°S, 145.1333°E)
Time: 14:42:51
(UTC+10:00)

Iridium 72 - Visible Passes

Search period start: 03 September 2014 00:00
Search period end: 13 September 2014 00:00
Orbit: 776 x 779 km, 86.4° (Epoch: 02 September)

Date Brightness Start Highest point End Pass type
(mag) Time Alt. Az. Time Alt. Az. Time Alt. Az.
03 Sep 7.2 19:37:17 10° SSE 19:39:03 18° SE 19:39:03 18° SE visible
03 Sep 7.9 21:17:49 10° SSW 21:19:34 19° SW 21:19:34 19° SW visible
04 Sep 7.3 19:05:01 10° SE 19:06:19 13° SE 19:06:19 13° SE visible
04 Sep 6.9 20:43:52 10° S 20:46:50 33° SSW 20:46:50 33° SSW visible
05 Sep 6.0 20:10:16 10° S 20:14:11 49° SSE 20:14:11 49° SSE visible
05 Sep 8.5 21:54:01 10° WSW 21:54:42 11° WSW 21:54:42 11° WSW visible
06 Sep 6.0 19:37:01 10° SSE 19:41:38 39° ESE 19:41:38 39° ESE visible
06 Sep 7.7 21:18:26 10° SSW 21:22:11 22° WSW 21:22:11 22° WSW visible
07 Sep 6.7 19:04:13 10° SSE 19:08:13 21° ESE 19:09:15 20° E visible
07 Sep 6.7 20:44:10 10° SSW 20:49:04 40° W 20:49:48 38° WNW visible
08 Sep 7.3 18:32:46 10° SE 18:34:20 11° ESE 18:35:54 10° E visible
08 Sep 5.6 20:10:22 10° S 20:15:39 76° W 20:17:38 39° NNW visible
09 Sep 5.5 19:36:54 10° S 19:42:07 58° E 19:45:49 19° NNE visible
09 Sep 8.3 21:19:25 10° SW 21:22:14 15° WSW 21:25:03 10° WNW visible
10 Sep 6.3 19:03:48 10° SSE 19:08:28 31° E 19:13:03 10° NE visible
10 Sep 7.4 20:44:38 10° SSW 20:49:02 27° W 20:53:23 10° NW visible
11 Sep 7.0 18:31:19 10° SE 18:34:40 17° ESE 18:37:59 10° ENE visible
11 Sep 6.3 20:10:35 10° SSW 20:15:41 51° W 20:20:44 10° NNW visible
12 Sep 5.4 19:36:55 10° S 19:42:14 85° E 19:47:28 10° N visible
